Weather in Yadrino

Russia / Chuvash Republic     55°59′25″N   46°25′40″E
temp.,
°C
wind,
m/s
gust,
m/s
humid.,
%
clouds,
%
prec.,
mm/h
press.,
hPa
HPBL,
m
14 april, wed
wed1400:00+6s346835 0.0 103034
03:00+6s337067 0.0 102925
06:00+4sse34826 0.0 102842
09:00+11sse37705 0.0 1028170
12:00+16sse46525 0.0 1026535
15:00+18sse464419 0.0 10241024
18:00+14se34723 0.0 102365
21:00+11sse36875 0.0 102374
15 april, thu
thu1500:00+10sse35900 0.0 102268
03:00+9sse33903 0.0 102130
06:00+9sse34913 0.0 102152
09:00+14ssw347542 0.0 1020382
12:00+17sw3359100 0.1 10191124
15:00+18wsw2250100 0.2 10181487
18:00+15nw226092 0.0 101819
21:00+13nne4774100 0.1 1020199
16 april, fri
fri1600:00+9nne61189100 0.1 1021431
03:00+7ne7128593 0.1 1022488
06:00+6ne71284100 0.0 1023511
09:00+7ne7108099 0.0 1024591
12:00+9ene697395 0.0 1025824
15:00+11ene686351 0.0 10251021
18:00+10ene58628 0.0 1026360
21:00+6ne512655 0.0 1027299
17 april, sat
sat1700:00+4ne512685 0.0 1028272
03:00+2ne511745 0.0 1028229
06:00+2ne411730 0.0 1029265
09:00+7ene68494 0.0 1030682
12:00+11ene67384 0.0 10291271
15:00+12ne56353 0.0 10281496
18:00+9ne47490 0.0 1028182
21:00+6ne33610 0.0 102936
18 april, sun
sun1800:00+4ne33690 0.0 102930
03:00+3ne34770 0.0 102961
06:00+3ne37795 0.0 1030164
09:00+8ne465665 0.0 1029652
12:00+11ne464691 0.0 10291502
15:00+12ne564492 0.0 10281865
18:00+9ne6961100 0.0 1030623
21:00+5ene5117497 0.0 1031495